Temp
29 28 28 27 27 27 26 26 26 26 27 27 27 28 29 31 31 30 28 27 27 27 27 27 26 26 26 26 26 26 26 26 26 27 27 27 27 27 26 26 26 26 26 26 26 26 26 26 26 25 25 25 25 25 25 25 25 25 25 25 25 25 25
28 27 27 27 27 28 27 27 26 26 26 26 27 27 28 29 30 30 29 27 27 27 26 27 26 26 26 26 26 26 26 26 26 26 27 27 27 27 27 27 27 27 27 27 27 27 27 26 26 26 26 25 25 25 25 25 25 25 25 25 25 25 25
27 26 27 27 28 28 27 27 27 27 26 26 26 27 27 29 30 30 29 28 27 27 27 27 26 26 26 26 26 26 26 26 26 26 27 27 27 27 27 27 27 27 27 27 27 27 27 27 27 27 26 26 26 25 25 25 25 25 25 25 25 25 25
27 25 25 27 28 27 26 26 26 27 26 25 26 27 27 27 29 30 29 28 27 27 27 27 27 27 26 26 27 26 26 26 26 27 27 27 27 27 27 27 27 27 27 27 27 27 27 27 27 26 26 26 26 26 25 25 25 25 25 25 25 25 25
27 25 25 26 27 26 26 25 25 25 25 25 26 27 27 27 28 29 30 29 28 27 27 27 27 27 27 27 27 27 26 26 27 27 27 28 28 27 28 28 28 28 28 27 27 27 27 27 27 26 26 26 26 26 26 25 25 25 25 25 25 25 25
27 26 25 25 26 26 26 25 24 25 25 26 27 28 27 28 29 30 30 29 28 28 28 27 28 28 27 27 27 27 27 26 27 27 27 28 28 28 28 28 28 28 28 28 28 28 28 27 27 26 26 26 26 26 26 26 26 25 25 25 25 26 26
26 26 25 26 26 25 25 25 25 25 25 27 28 28 28 28 29 29 30 29 29 28 28 28 28 28 28 28 28 28 28 27 27 27 27 28 28 28 28 28 28 28 28 28 28 28 28 27 27 27 27 26 27 27 27 26 26 26 26 25 25 26 26
25 25 25 26 25 25 24 24 24 25 26 27 28 28 28 28 29 28 29 29 29 29 29 28 28 28 28 28 28 28 28 27 27 27 27 28 28 28 28 28 28 28 29 29 28 28 28 27 27 27 27 27 27 27 27 27 27 26 26 26 26 26 26
25 24 24 25 25 26 25 23 22 23 24 25 26 27 27 28 29 28 28 28 28 28 27 27 27 27 26 27 28 29 29 28 28 27 27 28 28 28 29 29 28 28 29 29 29 29 28 28 28 27 27 27 27 28 28 27 27 27 27 27 26 26 26
24 24 24 24 25 25 25 24 22 22 22 23 25 26 26 27 28 27 27 27 27 26 26 26 26 26 26 25 26 28 29 28 28 28 28 28 29 29 29 29 29 28 28 29 29 29 29 28 28 28 28 28 28 28 28 28 28 27 27 27 27 26 26
24 24 24 24 24 24 24 24 23 23 22 22 23 24 25 25 26 26 26 26 26 25 25 25 25 25 26 26 25 26 27 28 28 29 29 29 29 29 29 29 29 29 29 29 29 29 29 29 28 28 28 28 28 28 28 28 28 27 27 27 27 27 27
24 24 24 23 23 23 23 23 23 23 23 23 23 23 23 23 24 25 25 25 25 25 25 25 25 25 26 26 25 25 25 27 28 28 29 29 29 29 30 30 30 30 29 29 29 29 29 29 29 28 28 28 28 28 27 27 27 27 27 27 27 27 27
25 24 24 24 24 23 23 23 23 23 23 22 22 22 22 22 22 23 24 24 24 24 24 24 25 25 25 25 25 24 24 26 27 27 28 29 30 30 30 30 30 30 30 29 29 29 30 30 29 28 28 28 28 28 28 27 27 27 27 27 27 27 27
26 25 24 24 24 23 23 23 23 23 23 22 22 21 21 21 21 21 22 23 23 23 23 23 24 24 25 25 25 25 24 24 24 24 25 26 28 30 31 31 31 31 31 30 29 29 30 30 30 29 29 28 28 28 28 27 27 27 27 27 27 28 28
26 25 25 24 24 23 23 23 23 23 23 23 22 21 20 21 21 21 21 22 23 23 23 23 23 24 25 25 25 25 25 24 23 23 24 24 25 27 29 30 31 31 31 31 30 30 30 30 30 30 29 29 28 28 28 28 27 27 27 27 27 27 28
26 25 25 24 24 24 23 23 24 24 23 23 22 21 21 21 21 21 21 21 22 23 23 24 23 23 24 24 23 23 24 24 24 23 23 23 24 25 26 27 29 31 31 31 31 30 30 30 31 31 30 29 29 28 28 28 28 28 27 27 27 27 28
25 25 24 24 24 24 23 23 23 24 24 24 23 22 22 22 22 22 22 22 22 22 23 23 23 22 22 22 22 22 23 23 24 23 22 22 24 26 26 25 24 26 28 30 31 31 31 30 30 31 31 30 29 29 28 28 29 28 28 27 27 27 27
24 24 24 23 23 23 23 23 23 23 24 24 24 23 23 23 23 23 23 22 22 22 23 23 22 22 22 21 21 22 22 22 23 23 21 21 22 24 26 25 24 23 24 25 27 30 31 31 31 30 31 31 30 30 29 29 29 29 29 28 28 27 27
24 23 23 23 23 23 23 23 23 23 23 24 24 24 23 23 23 23 23 23 23 23 23 22 22 21 21 21 21 21 21 21 22 21 21 22 22 22 23 24 25 25 23 23 23 25 26 28 30 30 30 31 31 31 30 29 29 29 29 29 29 28 28
24 23 23 23 23 23 22 22 22 22 23 23 24 23 23 23 23 23 23 24 24 23 23 22 22 21 21 21 21 21 20 21 21 21 21 22 22 22 22 22 23 24 25 25 25 25 25 26 27 29 29 30 30 30 30 30 30 29 29 29 29 29 28
24 23 23 23 23 22 22 22 22 22 23 23 23 23 23 23 23 23 23 24 24 23 23 22 21 21 21 21 21 21 20 20 20 21 21 21 22 22 21 22 23 23 23 24 25 25 25 25 25 26 27 27 28 29 29 29 29 29 29 29 29 29 29
24 24 23 23 23 22 22 22 22 22 22 23 23 23 23 22 23 23 23 23 24 23 23 22 21 21 21 21 21 21 21 20 20 20 20 20 21 22 21 22 22 22 23 23 23 24 24 24 25 25 26 26 26 27 27 28 28 28 28 28 29 29 29
24 24 24 24 23 23 22 21 22 22 23 23 23 22 22 22 22 22 22 22 23 23 23 22 21 21 21 21 21 21 21 21 20 20 20 20 20 21 21 21 22 22 22 23 23 24 24 24 24 25 25 25 25 25 26 27 27 28 28 28 28 28 29
24 24 24 24 23 23 22 21 22 22 23 23 22 22 22 22 22 22 22 22 22 22 22 21 21 20 21 21 21 21 21 21 21 20 20 20 20 20 20 21 21 21 22 22 22 23 23 23 24 24 25 25 25 25 25 25 26 27 27 28 27 28 28
24 23 23 23 23 22 22 22 22 22 23 23 22 22 22 22 22 21 21 21 21 22 21 21 20 20 20 20 21 21 21 21 21 21 21 20 20 20 20 20 20 20 21 21 21 21 22 22 22 23 23 24 24 25 25 25 26 26 26 27 27 27 27
23 23 23 23 22 21 22 22 22 22 22 22 21 21 22 22 21 21 21 21 21 21 21 20 20 20 20 20 20 21 21 22 21 21 22 21 21 20 20 20 20 20 20 20 20 21 22 22 22 23 23 23 24 24 24 25 25 25 26 26 26 27 27
22 22 22 22 21 21 21 21 21 21 22 21 21 21 21 20 20 20 20 20 21 21 21 20 20 20 20 20 20 21 21 21 21 21 22 22 21 21 21 20 20 20 19 19 20 20 21 21 22 22 23 23 24 24 24 24 24 25 25 26 26 26 26
22 21 21 21 21 21 21 20 21 21 20 20 20 20 20 19 20 20 20 20 20 20 20 20 20 20 19 19 20 20 21 21 21 22 22 22 21 21 21 20 20 20 19 19 19 20 20 21 21 22 23 23 24 24 24 24 24 24 24 25 25 25 25
21 20 20 21 21 20 19 19 19 19 19 19 19 19 19 19 19 19 19 20 20 20 20 20 20 20 19 19 20 20 20 21 21 22 22 22 22 21 21 21 20 20 20 20 19 20 20 20 21 21 22 23 23 23 24 24 24 24 24 24 25 25 25
20 20 19 20 19 19 19 19 19 18 18 18 18 18 19 19 19 19 19 19 19 20 20 20 20 20 19 19 19 20 20 21 21 21 22 22 21 21 21 21 21 20 20 20 20 20 20 20 21 21 22 22 23 23 24 24 24 24 23 23 23 24 24
19 19 19 19 18 18 18 18 18 18 18 18 18 18 18 18 18 18 19 19 19 19 19 20 20 20 20 19 19 19 20 21 21 21 22 21 21 21 22 22 22 21 21 21 20 20 20 20 21 21 21 22 22 23 23 23 23 23 23 23 23 23 23
18 18 18 18 17 17 17 17 17 18 18 18 18 18 18 18 18 18 18 18 18 19 19 20 20 20 20 19 19 19 19 20 21 21 21 21 21 22 22 22 22 22 21 21 21 20 20 20 20 20 21 21 21 22 22 22 23 23 23 22 22 22 22
18 18 17 17 17 16 16 17 17 17 17 17 17 17 17 17 18 18 18 18 18 18 19 19 19 20 20 20 19 19 19 20 21 21 21 21 21 21 21 21 21 22 22 21 21 20 20 19 19 19 19 20 20 20 21 21 22 22 22 22 22 22 22
17 17 17 16 16 16 16 16 16 16 16 16 17 17 17 17 17 17 17 18 18 18 18 18 19 19 20 20 19 19 19 20 20 20 20 20 21 21 21 21 21 21 21 20 20 20 19 19 19 19 19 19 19 19 20 20 21 22 22 22 22 22 22
17 16 16 16 16 16 16 16 16 16 16 16 16 16 16 16 16 17 17 17 18 18 18 18 18 19 19 20 19 19 19 19 19 19 19 19 20 20 20 20 20 20 19 19 19 19 19 19 19 19 19 19 18 18 18 19 20 20 21 21 21 21 21
17 16 16 16 16 16 16 16 16 16 16 15 15 15 15 16 16 16 17 17 17 18 18 18 18 19 19 19 19 19 19 19 18 18 18 19 19 19 19 19 19 19 19 19 19 19 19 19 19 19 19 19 19 18 18 18 18 19 19 20 20 20 20
16 16 16 16 16 16 16 16 15 15 15 15 15 15 15 15 16 16 17 17 17 17 18 18 18 18 19 19 19 19 18 18 18 18 18 18 18 19 19 19 19 19 19 19 19 19 19 19 19 19 19 19 19 19 19 19 19 19 18 19 19 20 20
16 16 16 16 16 16 15 15 15 15 14 14 14 14 14 14 15 16 16 17 17 17 17 17 18 18 18 18 18 18 17 17 17 17 17 17 18 18 18 19 19 19 19 19 19 19 19 19 19 19 19 19 19 19 20 20 19 19 18 18 19 19 20
Height
776 778 778 780 780 780 782 784 786 787 788 790 792 795 798 798 799 801 804 807 809 810 812 814 815 817 819 821 823 824 826 827 828 829 831 832 833 833 834 835 836 837 838 839 840 840 842 843 844 845 846 847 849 850 851 852 852 854 855 855 856 857 859
780 782 780 780 781 781 782 784 787 788 788 790 792 795 798 799 799 800 802 805 807 809 811 812 814 816 817 819 821 823 824 826 827 828 830 830 832 832 833 834 835 836 837 838 839 840 841 842 843 844 845 846 848 849 850 851 852 853 854 855 856 857 858
783 786 783 781 781 780 782 783 786 788 788 790 791 794 798 800 800 800 801 803 806 808 810 811 813 814 816 818 819 821 823 824 826 827 828 829 830 831 832 833 834 835 836 837 838 839 840 841 842 843 844 845 847 848 849 850 851 852 853 854 855 856 857
785 789 787 784 781 781 783 784 787 788 788 789 789 791 797 800 801 801 801 802 804 807 808 810 812 813 815 816 818 820 821 823 824 825 827 828 829 830 831 832 833 834 835 836 837 838 839 840 841 842 843 845 846 847 848 849 850 851 852 853 855 855 856
786 789 790 787 783 784 785 786 789 791 791 792 790 791 796 801 801 799 800 801 803 806 807 808 810 811 813 815 816 818 819 821 823 824 826 827 828 829 830 831 832 832 833 834 836 837 837 839 840 841 842 843 845 846 847 848 849 851 851 853 854 855 856
789 790 792 789 786 787 786 787 790 790 792 793 792 793 796 798 798 797 798 800 802 804 805 807 809 810 812 814 815 817 818 820 821 822 824 825 826 828 828 829 830 831 832 833 834 836 836 837 839 840 841 842 844 845 846 847 848 849 850 852 853 854 855
793 793 793 789 787 788 788 790 791 789 790 791 791 792 794 796 796 796 797 798 800 803 804 806 808 810 812 813 814 815 816 818 819 821 823 824 825 826 827 828 829 830 831 831 833 834 835 836 837 839 840 841 842 844 845 846 847 848 849 851 852 853 854
797 796 795 791 789 789 790 791 792 790 790 791 791 793 794 795 795 796 797 797 799 801 803 805 807 810 812 813 814 815 815 817 818 820 821 822 824 825 826 827 828 829 830 830 831 832 833 835 836 837 839 840 841 842 843 845 846 847 848 849 851 852 853
799 799 797 795 792 790 791 793 794 792 792 792 793 793 794 794 794 796 796 796 798 800 801 804 805 808 812 813 814 814 815 816 817 818 820 821 822 823 824 825 826 827 828 829 830 831 832 833 834 836 837 838 840 841 842 843 844 846 847 848 850 851 852
803 803 800 798 797 795 796 798 800 800 799 796 795 795 795 795 795 796 796 796 797 799 801 803 804 806 810 813 814 815 815 816 816 817 818 819 820 821 822 824 825 826 827 828 829 829 830 831 833 834 835 837 838 839 841 842 843 845 846 847 848 850 851
805 805 804 803 803 802 801 802 804 805 804 800 798 798 799 798 798 798 797 798 798 799 801 803 804 805 807 811 813 813 814 815 816 817 817 818 819 820 821 822 823 824 825 827 827 828 829 830 831 832 833 835 837 838 839 841 842 843 845 846 847 848 849
805 806 806 806 806 805 804 804 805 804 803 801 801 802 802 801 801 800 799 799 799 801 802 803 804 805 806 809 810 812 814 815 815 816 816 817 817 818 819 820 821 822 824 825 826 827 827 828 830 831 832 833 835 836 838 839 841 842 843 845 846 847 848
804 805 806 806 805 806 806 805 805 804 804 804 804 805 804 803 803 802 801 801 800 801 802 803 804 804 805 807 808 811 813 813 813 815 817 818 818 818 818 819 820 821 822 823 825 826 827 827 828 830 831 832 834 835 837 838 839 841 842 844 845 846 847
802 803 805 805 806 807 806 806 805 804 804 804 805 806 805 804 805 805 804 804 802 801 802 803 803 802 804 805 806 807 809 812 815 817 817 819 820 819 818 818 819 820 821 822 823 824 825 826 827 828 830 832 833 834 836 837 838 840 841 842 844 845 845
803 804 804 806 807 807 807 807 806 805 805 805 806 807 805 805 807 808 809 811 809 805 804 804 803 803 803 804 805 805 805 810 816 818 819 821 821 820 819 818 819 820 820 821 821 823 824 825 825 826 828 830 832 833 835 836 837 838 839 840 842 843 844
804 806 807 807 807 807 808 807 807 807 807 806 807 808 809 810 810 809 811 815 815 809 806 806 805 804 803 805 808 807 806 808 814 819 823 823 820 818 817 819 821 821 821 821 821 821 822 823 825 825 825 827 829 831 833 834 835 836 837 838 839 841 842
808 808 809 809 809 809 808 808 809 808 808 808 808 808 809 811 811 811 813 817 817 811 808 808 807 806 806 806 808 809 808 809 811 818 823 822 818 816 816 820 825 826 824 822 821 821 821 822 823 824 825 825 826 828 830 832 833 834 835 836 837 839 840
812 812 811 811 812 811 810 811 811 811 810 810 810 810 809 810 810 812 813 815 814 811 809 809 808 808 808 807 808 808 809 810 811 814 818 820 820 818 817 820 825 828 828 826 824 823 822 822 822 823 824 824 824 826 827 829 830 832 833 833 834 836 838
813 815 813 813 814 813 813 813 813 814 813 812 812 812 813 812 812 812 812 811 811 809 809 809 810 810 811 811 811 810 810 811 812 814 816 817 820 822 820 820 821 824 827 827 826 825 823 822 822 822 823 824 823 824 824 825 827 828 830 831 832 834 835
814 816 815 815 815 815 816 815 815 816 815 814 814 814 815 815 814 813 813 812 811 810 811 811 812 813 814 814 814 814 813 813 814 816 817 817 820 822 821 821 819 818 820 822 824 825 824 823 821 821 822 822 822 822 822 822 823 824 825 827 828 830 832
815 816 817 816 816 817 818 817 818 817 816 816 816 815 816 816 815 815 814 813 813 813 813 814 814 815 816 816 816 816 816 816 816 817 817 818 819 820 820 819 818 816 815 816 818 821 823 824 822 821 820 819 819 818 818 818 819 819 820 822 823 826 828
815 816 817 817 816 818 819 819 819 819 818 817 817 817 817 817 817 817 816 815 815 815 815 816 816 816 816 817 817 817 818 818 818 818 817 817 817 817 816 816 816 815 814 813 815 817 820 822 822 821 820 819 819 818 817 817 817 817 818 819 820 821 823
815 816 817 817 817 818 820 821 820 820 819 818 818 819 818 818 818 817 817 816 816 815 816 816 817 817 817 818 818 818 818 819 818 818 817 816 815 815 814 814 814 813 812 811 812 813 815 817 817 817 817 818 818 818 817 817 817 817 818 819 819 820 820
816 817 818 818 818 819 820 821 821 820 820 819 820 820 819 819 819 818 818 818 817 817 817 817 818 818 818 819 819 819 819 818 818 817 817 816 815 814 813 813 813 812 811 811 810 811 812 813 813 813 813 814 814 815 815 814 814 815 815 816 818 818 818
818 819 819 818 820 821 821 822 821 821 821 820 821 821 820 820 820 820 821 820 819 819 819 819 820 820 820 820 819 819 819 818 817 817 816 816 816 815 814 813 812 811 810 810 810 811 812 813 813 813 812 812 812 812 812 812 811 812 813 814 814 814 814
820 821 820 820 821 822 822 822 822 822 822 821 822 822 821 821 822 822 822 822 821 821 820 821 821 821 821 821 819 819 819 818 817 816 815 816 816 815 814 813 811 809 808 808 809 810 811 813 813 813 812 812 811 810 809 809 809 810 811 811 811 811 811
821 822 822 822 823 823 823 823 823 823 823 823 824 823 823 823 823 823 823 823 823 822 822 822 822 821 821 821 820 820 819 818 817 816 815 815 814 814 814 812 811 809 808 808 809 809 811 812 813 812 811 810 810 808 807 807 806 807 808 808 809 810 810
823 824 825 824 824 824 825 825 825 825 825 825 825 825 825 825 824 824 824 824 823 823 823 823 822 822 821 821 820 820 819 818 817 816 815 815 814 813 812 811 810 809 808 808 808 808 810 811 811 811 809 808 808 807 805 805 804 803 804 805 806 807 807
824 826 826 825 825 826 826 827 827 827 828 827 827 827 826 826 826 825 825 824 824 824 823 823 823 822 822 821 821 820 819 818 817 816 815 814 813 813 812 810 809 808 808 808 808 808 808 808 808 809 807 805 805 804 803 802 801 801 800 801 802 803 803
825 827 827 826 827 827 828 829 828 829 829 828 828 828 827 827 826 826 826 825 824 824 824 823 823 822 822 822 821 820 820 819 817 816 815 814 813 812 811 810 809 808 807 808 808 808 808 807 807 807 806 803 802 801 800 800 799 798 797 797 798 799 799
826 828 827 827 828 828 828 829 828 829 829 828 828 828 827 827 827 826 825 825 824 824 823 823 822 822 822 822 821 820 820 818 817 816 815 814 813 812 811 810 809 808 808 808 808 808 808 807 807 806 804 802 800 799 798 798 796 796 795 795 795 795 796
827 828 828 829 829 829 829 829 828 828 828 828 828 828 827 827 827 825 825 824 824 823 823 822 821 821 821 821 821 820 820 818 817 816 815 814 813 812 811 810 809 809 808 808 808 808 807 807 806 805 803 801 799 798 797 796 795 794 793 793 793 793 793
828 828 829 829 830 830 830 829 828 828 827 827 827 827 826 826 825 825 824 823 823 822 822 821 821 820 820 820 820 820 819 818 816 815 815 814 813 812 811 810 809 809 808 807 807 807 806 806 805 804 803 801 799 797 796 795 793 792 791 791 791 790 790
827 828 829 830 830 830 830 829 829 828 828 827 827 826 826 825 824 824 823 823 822 822 821 820 820 819 819 819 819 819 818 817 816 815 815 814 813 812 811 810 809 809 808 807 807 805 805 805 804 803 802 801 799 798 796 794 792 791 790 789 789 788 788
827 828 829 830 830 830 829 829 829 829 828 828 827 826 825 825 824 823 822 821 821 820 820 820 819 818 818 817 817 818 818 817 816 816 815 814 813 812 811 810 809 809 808 807 806 805 804 803 803 802 801 800 799 798 796 794 792 790 789 788 788 787 787
828 828 828 829 829 829 829 829 829 829 829 828 827 826 825 824 823 822 821 820 820 819 819 818 817 816 816 816 816 817 816 816 816 816 816 815 813 812 811 809 808 808 806 805 804 804 803 802 801 800 799 798 797 796 795 793 791 789 788 786 785 785 784
828 828 828 829 828 828 829 829 829 829 829 828 828 827 825 823 822 821 820 819 818 818 817 817 816 815 815 814 815 815 815 816 816 816 816 815 814 812 810 808 807 806 805 803 802 802 801 800 799 797 797 796 794 793 792 791 789 787 786 784 782 781 780
828 828 829 829 828 828 828 828 829 829 829 829 829 827 826 824 822 820 819 818 817 817 816 816 815 814 814 814 815 815 815 815 816 816 815 815 813 812 810 808 806 804 802 801 801 800 799 798 796 795 794 793 792 791 790 788 787 786 784 782 780 779 777
Wind_Speed
9 7 6 4 3 4 5 6 7 7 11 12 10 13 15 18 21 23 23 24 24 24 23 23 23 22 22 21 20 20 19 18 18 17 16 15 15 15 15 15 14 14 14 14 15 15 15 15 15 15 14 13 12 12 11 10 10 9 8 8 9 9 10
7 6 6 6 5 5 6 8 8 7 7 8 10 14 15 17 19 21 24 25 24 24 24 23 23 23 23 22 21 21 20 19 18 18 17 17 16 16 15 15 15 14 14 13 14 14 13 14 15 15 14 14 13 12 11 10 10 9 9 9 9 9 10
6 5 5 4 5 6 6 6 7 7 7 7 7 11 15 14 17 19 23 25 24 24 23 23 23 23 23 23 22 21 21 20 19 19 18 17 17 16 16 16 15 14 14 13 14 14 14 14 15 15 15 14 13 13 12 11 11 10 9 10 10 9 10
7 7 5 5 5 6 4 4 5 6 8 13 14 14 15 14 17 18 20 24 24 24 24 23 23 22 22 22 21 21 22 21 20 20 19 18 17 17 17 17 17 15 15 15 14 14 15 15 16 15 15 14 14 13 12 11 11 11 11 10 10 10 9
6 8 7 6 7 5 4 5 5 3 4 11 17 19 17 17 18 16 16 20 22 23 24 23 22 22 22 22 21 20 21 22 22 21 20 19 19 19 18 17 17 17 16 16 15 15 15 16 16 16 16 15 14 13 12 12 13 12 12 11 10 10 10
7 8 7 4 6 7 7 7 5 2 6 10 12 14 14 15 16 14 15 18 19 20 21 22 22 22 22 22 21 21 21 22 22 22 21 20 20 20 20 19 18 18 18 17 17 16 16 16 16 16 16 15 14 14 14 14 13 13 13 12 11 10 10
8 9 6 5 6 8 8 7 6 4 10 11 9 9 9 11 12 12 14 16 17 18 19 20 20 21 22 22 21 21 22 22 23 22 21 21 21 21 21 20 20 19 19 19 19 18 18 18 17 17 17 16 15 15 15 15 14 14 13 13 13 12 10
8 9 10 8 7 7 8 10 13 8 2 5 5 6 7 10 11 11 12 13 13 14 16 17 17 17 18 21 22 22 21 22 22 22 22 21 21 22 21 21 22 21 20 19 20 20 20 19 19 18 18 17 16 16 16 17 16 15 15 15 14 12 11
9 9 10 11 9 8 10 11 15 16 12 7 5 3 2 6 8 7 7 9 8 7 9 13 15 15 14 15 20 22 22 22 21 22 22 22 22 22 22 22 22 22 21 20 20 21 21 21 20 20 19 18 18 17 16 17 17 16 16 15 15 14 12
10 10 10 10 10 9 11 13 11 13 14 13 12 10 7 2 3 3 2 4 7 5 4 7 10 14 15 15 16 17 19 21 22 22 22 22 22 23 23 22 22 23 23 21 21 21 22 22 21 21 22 20 19 19 18 17 17 17 16 16 16 15 14
9 10 10 10 10 9 10 12 11 10 11 13 14 12 11 9 6 6 7 6 6 5 3 4 5 11 16 16 14 14 18 20 21 21 23 23 22 23 24 23 22 23 24 23 21 21 22 23 22 21 23 23 20 20 21 19 18 17 17 16 16 16 15
9 9 10 11 11 10 10 10 12 12 12 14 15 14 14 14 11 8 8 8 7 6 5 4 4 5 8 10 9 12 19 24 22 21 22 23 23 22 23 24 23 22 23 24 23 21 21 23 24 22 23 24 23 21 21 22 20 18 18 16 16 16 15
10 9 9 10 10 10 10 11 12 14 15 15 16 15 16 17 18 16 12 11 9 9 8 7 6 4 1 3 5 9 16 20 21 23 23 21 23 24 22 22 24 23 23 23 23 23 21 21 23 23 22 23 23 22 21 22 22 20 19 18 16 16 16
11 10 10 11 11 11 11 11 12 14 16 17 16 16 18 20 21 22 21 17 13 11 10 9 9 6 3 2 3 8 12 13 16 22 24 23 22 25 25 23 23 23 24 24 24 23 22 21 22 23 22 21 22 22 21 22 22 21 21 20 19 17 17
11 11 11 11 11 11 12 11 12 14 16 17 17 16 18 20 19 19 21 20 14 12 12 11 11 9 5 5 4 5 9 10 15 18 20 26 27 22 21 23 23 24 23 23 24 23 23 22 21 22 23 22 22 21 20 21 22 22 22 22 21 20 19
11 11 11 11 11 11 11 12 13 15 16 17 17 17 16 15 15 16 17 16 14 13 14 12 12 12 9 9 8 4 4 7 11 15 18 24 27 23 18 19 20 22 24 23 23 22 23 24 23 21 22 23 24 23 21 21 21 22 23 23 23 23 21
10 10 11 11 11 11 11 12 14 15 15 16 16 16 15 14 14 14 12 10 12 13 14 13 13 13 13 13 11 8 6 5 7 13 18 20 20 18 17 21 27 26 21 21 23 23 22 23 23 22 21 22 24 24 23 21 20 22 24 25 25 24 23
10 10 10 11 11 11 11 12 13 15 15 15 15 15 16 15 15 13 11 11 12 14 15 16 17 17 16 17 15 13 13 12 10 11 16 18 17 14 13 19 27 30 29 24 18 18 20 21 23 22 21 20 19 21 23 23 22 22 23 26 27 26 24
10 9 10 10 10 11 11 12 13 14 14 15 15 15 15 15 15 14 14 14 13 14 17 17 18 18 18 16 16 16 17 17 16 17 20 18 17 17 13 12 17 19 22 29 29 22 18 16 18 20 21 21 20 18 20 22 23 24 24 25 27 28 27
9 8 9 10 10 10 11 12 13 14 14 14 14 14 14 14 14 14 14 14 14 15 17 18 17 18 17 16 16 17 18 19 19 19 20 18 16 15 13 10 10 10 13 16 18 19 20 19 16 14 16 18 21 21 19 18 20 24 27 27 27 28 30
7 7 7 8 9 10 11 13 13 13 14 14 14 14 14 14 15 14 14 14 14 14 16 17 17 18 18 17 18 18 18 19 19 18 17 16 15 13 10 8 8 7 8 9 9 12 16 18 18 16 15 14 16 19 20 19 16 17 24 30 31 29 29
6 7 7 7 9 11 12 12 12 12 12 12 13 14 14 14 14 14 14 14 13 14 15 16 17 18 18 18 17 17 17 16 16 16 16 16 15 13 11 9 8 6 5 6 6 7 10 15 18 18 17 18 17 17 20 22 20 17 18 23 29 31 31
5 6 8 7 9 12 12 12 11 11 11 11 13 14 14 13 14 14 15 15 15 14 15 16 17 17 17 17 17 16 15 14 13 14 15 15 16 15 13 12 11 10 8 6 6 6 8 12 17 18 18 19 19 19 21 24 25 24 23 21 23 29 33
6 6 7 7 9 11 12 12 11 11 12 12 14 14 13 12 12 13 14 15 16 15 15 15 17 17 17 16 16 15 15 13 12 13 13 14 15 15 14 13 13 12 10 8 7 6 7 10 14 17 19 21 22 22 22 23 24 25 26 25 23 24 31
5 6 6 7 10 10 10 10 10 11 12 12 14 15 14 12 12 13 13 14 14 14 14 14 15 15 16 16 15 14 14 14 13 12 12 12 13 13 12 12 12 12 12 12 11 10 9 10 12 13 15 18 20 22 23 25 24 23 24 27 25 23 27
4 5 6 8 10 10 9 9 10 11 11 12 13 14 14 14 14 13 13 12 12 12 13 13 14 14 14 15 15 14 13 13 13 13 12 10 10 12 12 11 11 12 13 14 14 13 13 14 15 14 14 14 14 17 20 22 23 23 23 25 27 25 25
3 4 6 8 9 8 8 9 10 11 11 12 13 13 13 14 14 13 13 12 11 11 11 11 12 13 14 14 14 14 14 13 13 14 12 10 10 13 13 14 14 13 13 12 11 12 13 15 17 17 16 15 14 15 16 17 20 22 24 24 24 25 25
3 4 6 7 7 7 9 9 10 11 12 13 13 13 13 13 13 12 12 12 11 11 11 11 11 12 13 13 13 13 14 13 12 12 12 11 11 12 13 15 16 14 13 12 11 12 13 15 17 18 18 18 17 15 14 14 15 18 21 23 23 24 25
5 5 6 7 7 9 10 9 9 11 12 13 13 13 12 12 12 12 11 12 12 12 11 10 11 11 11 12 12 13 13 12 12 12 12 12 11 11 13 15 16 16 15 13 13 14 14 15 17 17 17 18 18 17 15 14 15 16 18 20 21 22 24
6 6 7 8 9 10 10 9 9 10 11 11 12 13 12 12 12 12 12 12 12 13 12 11 10 10 10 11 12 12 12 12 12 11 10 11 12 12 14 14 14 14 14 13 13 14 15 16 16 17 17 17 17 17 15 14 14 15 15 17 18 19 21
6 7 7 8 9 11 11 11 11 10 10 11 12 13 13 13 13 13 13 13 13 13 13 12 11 9 9 10 11 12 12 13 12 10 9 11 12 12 13 13 13 12 11 11 11 12 12 13 15 16 17 17 16 16 15 14 14 15 15 15 15 16 18
6 7 8 8 10 11 12 12 12 12 12 12 12 12 12 13 13 13 14 13 13 13 14 14 13 11 10 9 10 11 13 13 12 10 9 11 11 11 11 12 13 14 13 10 9 9 10 13 16 18 19 18 18 17 15 14 14 15 14 14 14 15 16
6 7 8 9 10 10 10 11 12 13 14 14 14 14 14 13 14 14 14 15 14 14 14 15 14 13 11 10 10 11 12 12 11 10 10 10 10 11 12 11 11 13 14 12 11 10 11 13 16 17 18 19 20 20 18 16 14 12 12 12 14 15 15
7 8 9 9 10 9 9 9 11 13 14 15 16 16 16 16 15 15 15 15 15 15 15 14 14 13 12 11 10 11 11 11 11 10 10 11 11 11 12 11 10 11 13 14 14 12 11 13 16 18 19 19 19 19 18 17 15 11 10 11 11 11 11
7 8 9 9 9 10 9 10 10 12 13 14 16 17 18 18 18 17 16 15 15 14 14 14 14 15 14 11 9 9 10 10 10 11 11 12 12 12 12 12 12 13 14 16 16 14 13 15 17 19 20 21 20 18 17 17 16 14 13 12 10 9 9
8 8 9 9 10 10 10 10 11 11 12 14 16 18 19 20 19 18 17 16 15 14 15 15 15 15 14 11 9 9 9 8 10 11 12 12 13 13 13 14 15 15 17 18 17 14 13 15 16 17 19 22 23 20 18 19 20 19 18 19 18 18 19
8 8 9 10 10 10 10 11 11 12 13 14 15 18 20 21 20 19 18 16 15 15 15 16 16 15 13 12 10 9 8 8 9 11 11 12 13 14 15 16 17 17 17 18 17 16 15 16 15 14 15 18 20 19 18 19 21 21 20 20 20 21 23
7 8 9 9 9 10 10 11 12 13 13 13 14 17 19 20 20 20 19 17 16 16 16 16 16 15 12 11 10 10 10 10 11 12 12 12 14 15 14 15 16 18 18 18 18 18 19 18 15 13 13 14 15 15 18 21 21 20 20 20 20 20 20
Wind_Direction
153 138 125 117 137 148 150 151 152 171 164 166 212 226 211 203 186 172 175 179 182 185 187 187 186 187 189 191 192 192 194 195 194 194 194 193 193 191 189 191 190 188 188 185 186 190 186 186 190 189 188 189 189 191 190 188 184 181 182 183 182 186 191
140 141 148 142 141 149 152 163 166 162 159 170 198 213 225 220 194 176 174 179 183 186 188 188 188 189 190 192 194 194 195 195 195 196 197 199 200 199 195 194 196 195 194 189 186 188 186 184 186 186 187 189 189 190 191 191 189 185 186 187 185 189 193
127 127 140 137 140 142 135 154 156 145 169 187 187 216 241 229 202 189 177 177 185 188 189 190 190 191 192 192 194 196 197 197 196 197 199 201 201 202 201 199 199 198 198 196 190 188 188 187 186 185 187 189 191 195 194 191 192 191 193 193 190 194 195
111 109 105 92 104 120 114 132 132 127 178 191 185 203 233 229 214 206 185 180 186 188 191 192 191 192 192 192 194 197 198 199 200 200 201 204 203 202 202 201 201 200 198 198 195 193 191 190 189 188 189 189 193 200 198 192 193 194 197 197 194 199 200
94 116 103 68 71 87 66 56 66 81 185 199 195 196 207 212 212 210 197 190 190 193 196 195 194 194 192 193 195 197 199 200 202 203 204 205 204 203 204 202 202 202 200 198 198 199 195 190 191 192 194 193 193 198 197 196 199 198 198 199 198 201 203
59 94 107 98 79 74 68 59 40 278 221 215 205 192 196 204 202 202 204 196 191 196 202 202 202 199 195 197 198 197 199 201 203 205 206 208 206 205 207 205 203 202 201 199 199 201 198 193 194 194 195 196 195 196 196 199 203 201 200 203 203 203 206
40 51 69 123 113 80 72 59 26 269 224 218 200 180 197 208 197 197 205 197 191 200 207 210 213 209 201 201 203 203 200 201 205 205 206 210 209 208 209 208 206 204 203 201 199 201 200 197 198 198 197 198 199 199 198 199 202 203 203 208 209 207 211
37 35 40 66 93 84 70 38 15 14 172 195 184 183 207 207 194 200 209 200 196 203 206 208 217 224 218 208 206 208 206 203 205 205 206 209 211 212 211 209 210 208 206 204 201 201 201 199 200 201 201 201 201 203 203 199 200 203 205 209 211 209 212
50 45 41 49 63 74 75 52 20 21 35 44 65 88 187 205 196 202 213 214 216 211 200 205 217 233 247 236 218 212 211 208 206 205 206 209 212 214 213 211 211 211 210 208 205 204 203 201 202 203 203 204 204 206 206 203 200 202 205 208 210 210 212
65 59 53 53 57 57 66 69 48 30 29 30 43 54 49 76 157 139 116 210 226 220 176 188 209 221 237 250 243 227 219 216 214 209 208 210 213 214 215 214 211 210 211 212 209 206 205 204 204 204 203 204 207 207 207 207 204 204 207 209 211 213 215
76 72 69 68 66 56 55 61 60 53 46 39 41 43 36 40 72 93 85 114 171 179 150 153 184 208 218 231 244 244 238 233 227 220 214 213 216 215 215 216 214 210 210 213 213 210 206 206 206 206 204 204 207 208 208 210 208 206 209 211 213 215 217
83 77 74 73 73 66 58 57 54 52 52 48 44 38 29 27 33 49 65 77 98 104 96 112 151 199 219 229 242 251 249 242 236 235 228 218 218 220 217 216 217 214 209 211 216 215 209 207 206 207 207 205 207 209 209 211 211 210 212 212 214 216 217
90 83 74 68 68 66 60 57 53 50 50 50 46 41 35 27 19 19 27 39 49 60 68 79 91 99 124 255 260 265 261 249 243 250 250 235 225 224 222 219 218 217 213 209 213 218 217 211 206 208 210 208 207 210 212 211 212 213 214 214 215 218 218
89 85 80 69 62 60 58 55 52 48 49 50 47 42 40 34 24 17 14 14 23 33 36 46 58 59 40 347 292 263 268 282 285 277 273 271 259 237 226 226 222 220 219 210 207 215 220 218 210 205 209 211 210 210 213 214 212 213 215 216 216 219 221
80 76 74 70 63 57 54 52 52 49 48 49 47 45 44 39 34 28 16 4 7 28 28 29 43 40 11 12 12 266 252 281 308 301 282 280 285 272 244 237 230 223 224 217 209 211 216 221 221 209 204 209 212 211 213 216 214 213 214 215 216 218 221
78 74 67 63 61 57 53 48 47 50 52 51 47 45 47 47 43 43 32 4 353 17 28 29 43 40 23 28 30 343 265 264 290 302 285 274 284 292 285 278 265 241 230 224 220 217 214 215 222 219 207 203 207 211 213 217 218 217 216 215 216 217 220
67 67 65 61 54 52 53 49 42 42 48 53 52 44 41 45 45 48 48 23 3 17 30 37 44 39 28 26 20 2 357 339 299 302 301 292 290 286 278 290 300 291 268 243 229 223 219 214 217 224 220 209 205 207 211 217 220 220 220 219 218 218 220
69 57 58 60 54 46 46 46 40 36 37 44 51 47 38 34 36 37 39 34 26 26 31 38 42 39 32 26 16 5 4 5 355 343 339 333 326 311 275 271 289 305 315 309 279 246 232 221 215 220 228 227 218 209 208 215 221 224 225 224 222 222 221
76 60 53 55 55 48 43 41 37 33 31 35 42 45 41 34 31 31 27 24 26 32 34 36 40 40 37 31 23 15 10 9 8 10 11 3 346 338 329 291 274 285 309 323 324 313 292 265 235 223 227 234 238 232 220 216 218 221 225 229 228 226 224
71 62 55 56 55 49 42 38 33 27 25 30 36 39 38 33 30 31 29 24 26 33 35 33 35 37 35 31 29 24 17 14 13 12 17 16 4 358 353 327 295 275 276 295 307 302 297 297 284 258 243 238 239 245 246 238 228 221 220 225 229 229 228
74 71 61 56 61 57 45 35 28 20 17 23 30 32 32 29 26 25 27 27 29 33 36 34 32 31 28 25 27 28 23 19 16 14 17 15 10 14 12 335 310 303 286 281 279 263 268 288 294 283 275 261 243 241 246 249 249 236 224 223 225 227 228
69 72 61 49 57 60 48 32 22 14 11 17 25 25 24 24 23 21 22 22 24 30 34 34 30 26 24 22 23 25 25 22 17 13 14 13 8 9 12 357 337 325 303 299 311 289 272 283 286 279 277 277 268 256 248 244 247 249 241 232 228 226 226
65 63 57 45 50 54 45 27 15 9 7 17 29 23 14 16 19 19 19 16 16 22 28 29 26 22 19 18 18 19 18 18 20 14 9 10 9 6 5 359 350 338 317 297 296 283 262 262 266 263 263 266 264 262 259 251 246 247 250 249 240 232 228
63 55 50 41 42 43 35 21 11 7 5 15 27 16 3 12 19 17 17 13 9 14 20 21 20 16 13 13 12 13 10 10 18 19 11 9 8 5 1 356 352 345 330 318 315 305 282 268 264 259 258 258 255 255 257 256 250 246 244 245 246 240 233
38 38 35 39 39 30 21 14 10 7 3 11 18 5 357 13 21 16 15 11 5 9 13 14 14 11 8 5 2 5 7 9 13 11 7 9 10 7 3 356 351 351 345 339 334 327 312 298 289 279 271 267 263 259 258 258 257 253 244 240 241 240 235
37 23 15 31 33 18 8 12 12 4 1 9 11 358 355 8 10 5 6 3 360 4 7 6 6 4 2 360 358 360 2 5 6 359 353 360 5 3 358 347 337 338 343 346 339 326 311 299 292 285 277 272 264 258 259 260 259 258 253 246 243 242 239
47 28 18 24 24 13 10 13 9 0 359 5 3 355 356 1 356 352 353 350 352 359 360 359 358 357 359 358 355 357 358 359 357 351 349 354 354 350 346 342 334 323 322 333 339 327 311 297 287 279 272 270 265 260 259 258 258 260 261 257 252 250 247
43 31 21 18 19 24 23 12 3 360 358 359 357 355 356 353 345 344 343 339 342 346 348 351 351 351 354 355 353 354 352 351 350 347 346 345 342 341 340 338 336 328 319 320 322 316 308 298 287 276 266 263 261 259 257 257 260 264 264 262 260 257 252
51 32 20 14 15 24 22 8 1 359 352 349 352 351 349 345 342 340 336 333 336 336 334 340 343 344 348 351 352 350 344 344 347 343 337 335 337 340 338 331 328 329 327 319 309 303 301 298 291 280 269 263 259 256 255 256 260 265 267 266 264 259 255
41 27 17 12 8 11 10 359 354 352 344 343 345 344 342 341 339 335 331 329 330 329 327 326 327 333 343 344 343 341 339 339 337 331 329 333 335 334 330 323 319 321 324 322 314 304 295 291 288 281 273 266 260 255 253 253 255 260 267 271 268 264 259
30 22 13 6 4 4 358 347 343 341 339 340 340 337 337 337 332 328 327 326 325 322 318 315 313 318 330 336 336 335 335 332 328 328 334 332 325 321 322 324 322 316 313 314 314 306 299 301 305 302 294 286 277 268 261 259 259 260 266 272 274 273 268
21 13 5 3 4 0 351 341 336 335 335 336 337 335 332 330 326 322 321 322 323 319 313 313 312 311 315 324 331 333 331 326 325 330 333 325 320 322 325 327 327 322 317 317 322 324 326 327 325 322 319 315 311 305 293 280 272 266 263 268 275 277 275
7 6 3 1 358 355 347 338 334 334 334 334 334 334 331 327 323 320 319 321 322 320 318 316 313 311 311 316 326 330 326 323 324 328 328 325 326 328 324 318 318 320 323 329 336 339 337 332 326 323 322 320 320 318 310 298 289 277 265 263 267 269 270
357 358 356 352 347 343 340 335 334 335 334 331 331 331 330 327 322 319 318 318 317 316 316 312 307 304 303 307 321 327 321 317 323 330 331 330 327 322 320 319 318 318 319 321 321 322 323 321 318 317 317 315 315 314 308 302 298 291 279 269 261 257 261
349 346 343 340 336 334 332 332 335 335 330 329 330 331 328 325 321 319 316 313 313 314 312 308 304 300 298 304 317 318 313 318 329 333 331 328 323 319 318 317 315 311 307 305 306 309 311 309 307 309 312 310 309 306 301 298 297 292 283 275 264 258 263
337 333 332 329 329 333 333 333 337 335 332 333 333 331 329 324 319 316 315 311 310 310 307 305 303 299 297 298 301 304 313 330 336 333 328 322 318 317 314 310 309 307 303 302 305 309 309 304 302 305 309 308 308 306 299 294 295 295 290 282 275 272 270
323 324 328 327 327 329 328 331 337 337 338 340 336 332 331 328 321 316 313 310 310 310 308 308 307 302 298 297 302 319 344 349 336 327 324 318 313 311 310 310 311 309 306 305 306 308 308 306 304 305 305 303 304 309 310 308 308 308 305 297 287 280 276
317 316 318 319 320 325 329 334 340 341 341 342 339 334 330 327 327 327 322 314 310 310 310 310 310 308 306 307 314 333 347 342 328 321 318 313 308 306 308 311 312 312 311 310 307 306 307 310 311 311 309 299 291 298 314 323 323 319 314 307 296 286 280